Location: Dumpton Point
(51.3500°N, 1.4433°E)
Time: 18:03:10
(UTC+00:00)

X-37B - Pass Details

Date: 13 March 2021
Orbit: 380 x 394 km, 45.0° (Epoch: 07 April)

Event Time Altitude Azimuth Distance (km) Brightness Sun altitude
Rises 18:54:41 0° 213° (SSW) 2,264 4.8 -10.0°
Reaches altitude 10° 18:57:37 10° 183° (S) 1,417 3.4 -10.4°
Maximum altitude 18:59:07 13° 155° (SSE) 1,267 2.9 -10.7°
Enters shadow 19:00:00 12° 138° (SE) 1,323 2.8 -10.8°
